| time (UTC) | temp C | wind direction | speed KPH | gust KPH | rain 1hr cm | rain 24hr cm | rain mn cm | humidity % | barometer mb |
| 20260506234611 | 10 | 337 | 1.6 | 0.0 | 0.00 | 0.00 | 0.00 | 47 | 978.1 |
| 20260506233611 | 10 | 337 | 0.0 | 0.0 | 0.00 | 0.00 | 0.00 | 47 | 978.1 |
| 20260506232611 | 10 | 337 | 1.6 | 0.0 | 0.00 | 0.00 | 0.00 | 47 | 978.1 |
| 20260506231611 | 11 | 315 | 1.6 | 1.6 | 0.00 | 0.00 | 0.00 | 47 | 978.3 |
| 20260506230610 | 11 | 22 | 1.6 | 0.0 | 0.00 | 0.00 | 0.00 | 47 | 978.3 |
| 20260506225610 | 11 | 315 | 1.6 | 0.0 | 0.00 | 0.00 | 0.00 | 47 | 978.1 |
| 20260506224610 | 11 | 315 | 1.6 | 0.0 | 0.00 | 0.00 | 0.00 | 47 | 978.1 |
| 20260506223610 | 11 | 315 | 0.0 | 0.0 | 0.00 | 0.00 | 0.00 | 47 | 978.0 |
| 20260506222610 | 11 | 315 | 1.6 | 1.6 | 0.00 | 0.00 | 0.00 | 46 | 978.0 |
| 20260506221610 | 11 | 315 | 1.6 | 6.4 | 0.00 | 0.00 | 0.00 | 46 | 978.1 |
| 20260506220610 | 11 | 337 | 1.6 | 0.0 | 0.00 | 0.00 | 0.00 | 46 | 978.1 |
| 20260506215610 | 11 | 337 | 1.6 | 0.0 | 0.00 | 0.00 | 0.00 | 46 | 978.0 |
| 20260506214610 | 11 | 292 | 1.6 | 3.2 | 0.00 | 0.00 | 0.00 | 46 | 978.0 |
| 20260506213610 | 11 | 292 | 0.0 | 3.2 | 0.00 | 0.00 | 0.00 | 46 | 977.8 |
| 20260506212610 | 11 | 315 | 0.0 | 0.0 | 0.00 | 0.00 | 0.00 | 46 | 977.8 |
| 20260506211610 | 11 | 292 | 0.0 | 0.0 | 0.00 | 0.00 | 0.00 | 46 | 977.4 |
| 20260506210609 | 11 | 315 | 0.0 | 0.0 | 0.00 | 0.00 | 0.00 | 46 | 977.4 |
| 20260506205609 | 11 | 315 | 0.0 | 0.0 | 0.00 | 0.00 | 0.00 | 46 | 977.4 |
| 20260506204609 | 11 | 292 | 1.6 | 3.2 | 0.00 | 0.00 | 0.00 | 46 | 977.4 |
| 20260506203609 | 11 | 315 | 1.6 | 4.8 | 0.00 | 0.00 | 0.00 | 46 | 977.2 |
| 20260506202609 | 11 | 315 | 1.6 | 0.0 | 0.00 | 0.00 | 0.00 | 46 | 977.2 |
| 20260506201614 | 11 | 270 | 0.0 | 3.2 | 0.00 | 0.00 | 0.00 | 46 | 977.0 |
| 20260506200614 | 11 | 270 | 0.0 | 0.0 | 0.00 | 0.00 | 0.00 | 46 | 977.0 |
| 20260506195614 | 11 | 292 | 0.0 | 0.0 | 0.00 | 0.00 | 0.00 | 46 | 976.8 |
| 20260506194614 | 12 | 337 | 0.0 | 0.0 | 0.00 | 0.00 | 0.00 | 45 | 976.8 |
| 20260506193614 | 12 | 292 | 1.6 | 0.0 | 0.00 | 0.00 | 0.00 | 45 | 976.6 |
| 20260506192614 | 12 | 315 | 0.0 | 3.2 | 0.00 | 0.00 | 0.00 | 45 | 976.6 |
| 20260506191614 | 12 | 292 | 0.0 | 0.0 | 0.00 | 0.00 | 0.00 | 45 | 976.4 |
| 20260506190614 | 12 | 315 | 1.6 | 0.0 | 0.00 | 0.00 | 0.00 | 45 | 976.4 |
| 20260506185614 | 12 | 270 | 3.2 | 6.4 | 0.00 | 0.00 | 0.00 | 45 | 975.9 |
| 20260506184613 | 12 | 292 | 3.2 | 3.2 | 0.00 | 0.00 | 0.00 | 45 | 975.9 |
| 20260506183613 | 12 | 315 | 4.8 | 6.4 | 0.00 | 0.00 | 0.00 | 45 | 975.8 |
| 20260506182613 | 12 | 315 | 1.6 | 8.0 | 0.00 | 0.00 | 0.00 | 45 | 975.8 |
| 20260506181613 | 13 | 337 | 1.6 | 0.0 | 0.00 | 0.00 | 0.00 | 45 | 975.6 |
| 20260506180613 | 13 | 292 | 1.6 | 3.2 | 0.00 | 0.00 | 0.00 | 45 | 975.6 |
| 20260506175613 | 13 | 360 | 1.6 | 3.2 | 0.00 | 0.00 | 0.00 | 45 | 975.4 |
| 20260506174613 | 13 | 360 | 0.0 | 0.0 | 0.00 | 0.00 | 0.00 | 45 | 975.4 |
| 20260506173613 | 13 | 337 | 0.0 | 0.0 | 0.00 | 0.00 | 0.00 | 45 | 975.4 |
| 20260506172613 | 13 | 22 | 1.6 | 0.0 | 0.00 | 0.00 | 0.00 | 45 | 975.4 |
| 20260506171613 | 13 | 337 | 1.6 | 3.2 | 0.00 | 0.00 | 0.00 | 45 | 975.1 |
| 20260506170612 | 13 | 247 | 0.0 | 0.0 | 0.00 | 0.00 | 0.00 | 45 | 975.1 |
| 20260506165612 | 13 | 315 | 1.6 | 3.2 | 0.00 | 0.00 | 0.00 | 45 | 975.2 |
| 20260506164612 | 14 | 270 | 3.2 | 1.6 | 0.00 | 0.00 | 0.00 | 45 | 975.2 |
| 20260506163612 | 14 | 270 | 3.2 | 1.6 | 0.00 | 0.00 | 0.00 | 45 | 975.4 |
| 20260506162612 | 15 | 360 | 4.8 | 6.4 | 0.00 | 0.00 | 0.00 | 46 | 975.4 |
| 20260506161612 | 15 | 337 | 3.2 | 8.0 | 0.00 | 0.00 | 0.00 | 46 | 975.4 |
| 20260506160612 | 15 | 360 | 4.8 | 11.3 | 0.00 | 0.00 | 0.00 | 46 | 975.4 |
| 20260506155612 | 16 | 337 | 4.8 | 8.0 | 0.00 | 0.00 | 0.00 | 46 | 975.1 |
| 20260506154612 | 16 | 22 | 4.8 | 6.4 | 0.00 | 0.00 | 0.00 | 46 | 975.1 |
| 20260506153612 | 16 | 315 | 3.2 | 3.2 | 0.00 | 0.00 | 0.00 | 46 | 975.2 |
| 20260506152612 | 16 | 315 | 3.2 | 4.8 | 0.00 | 0.00 | 0.00 | 47 | 975.2 |
| 20260506151612 | 16 | 202 | 3.2 | 3.2 | 0.00 | 0.00 | 0.00 | 47 | 975.1 |
| 20260506150611 | 16 | 22 | 1.6 | 0.0 | 0.00 | 0.00 | 0.00 | 47 | 975.1 |
| 20260506145611 | 16 | 315 | 1.6 | 6.4 | 0.00 | 0.00 | 0.00 | 47 | 974.8 |
| 20260506144611 | 16 | 315 | 1.6 | 0.0 | 0.00 | 0.00 | 0.00 | 47 | 974.8 |
| 20260506143611 | 15 | 270 | 3.2 | 9.7 | 0.00 | 0.00 | 0.00 | 48 | 974.9 |
| 20260506142611 | 15 | 315 | 3.2 | 3.2 | 0.00 | 0.00 | 0.00 | 48 | 974.9 |
| 20260506141611 | 16 | 360 | 3.2 | 0.0 | 0.00 | 0.00 | 0.00 | 48 | 974.8 |
| 20260506140612 | 16 | 157 | 3.2 | 3.2 | 0.00 | 0.00 | 0.00 | 48 | 974.8 |
| 20260506135611 | 16 | 247 | 3.2 | 4.8 | 0.00 | 0.00 | 0.00 | 49 | 974.8 |
| 20260506134611 | 16 | 247 | 3.2 | 4.8 | 0.00 | 0.00 | 0.00 | 48 | 974.8 |
| 20260506133611 | 16 | 225 | 3.2 | 8.0 | 0.00 | 0.00 | 0.00 | 49 | 975.1 |
| 20260506132611 | 16 | 270 | 4.8 | 6.4 | 0.00 | 0.00 | 0.00 | 49 | 975.1 |
| 20260506131611 | 16 | 247 | 4.8 | 4.8 | 0.00 | 0.00 | 0.00 | 49 | 974.8 |
| 20260506130611 | 17 | 292 | 4.8 | 9.7 | 0.00 | 0.00 | 0.00 | 49 | 974.8 |
| 20260506125610 | 18 | 292 | 3.2 | 4.8 | 0.00 | 0.00 | 0.00 | 50 | 974.6 |
| 20260506124610 | 17 | 270 | 4.8 | 1.6 | 0.00 | 0.00 | 0.00 | 50 | 974.6 |
| 20260506123611 | 17 | 337 | 4.8 | 6.4 | 0.00 | 0.00 | 0.00 | 50 | 974.3 |
| 20260506122610 | 17 | 135 | 4.8 | 3.2 | 0.00 | 0.00 | 0.00 | 50 | 974.3 |
| 20260506121610 | 17 | 247 | 4.8 | 0.0 | 0.00 | 0.00 | 0.00 | 51 | 974.5 |
| 20260506120610 | 16 | 180 | 4.8 | 12.9 | 0.00 | 0.00 | 0.00 | 51 | 974.5 |
| 20260506115610 | 16 | 135 | 4.8 | 6.4 | 0.00 | 0.00 | 0.00 | 53 | 974.6 |
| 20260506114610 | 17 | 157 | 3.2 | 9.7 | 0.00 | 0.00 | 0.00 | 53 | 974.6 |
| 20260506113610 | 17 | 67 | 4.8 | 1.6 | 0.00 | 0.00 | 0.00 | 53 | 974.6 |
| 20260506112610 | 16 | 157 | 4.8 | 17.7 | 0.00 | 0.00 | 0.00 | 53 | 974.6 |
| 20260506111609 | 18 | 247 | 4.8 | 4.8 | 0.00 | 0.00 | 0.00 | 55 | 974.6 |
| 20260506110609 | 17 | 225 | 1.6 | 9.7 | 0.00 | 0.00 | 0.00 | 54 | 974.6 |
| 20260506105610 | 18 | 202 | 4.8 | 8.0 | 0.00 | 0.00 | 0.00 | 56 | 974.8 |
| 20260506104609 | 17 | 202 | 3.2 | 6.4 | 0.00 | 0.00 | 0.00 | 56 | 974.8 |
| 20260506103609 | 17 | 247 | 4.8 | 8.0 | 0.00 | 0.00 | 0.00 | 56 | 974.6 |
| 20260506102609 | 17 | 337 | 4.8 | 6.4 | 0.00 | 0.00 | 0.00 | 56 | 974.6 |
| 20260506101609 | 16 | 247 | 4.8 | 9.7 | 0.00 | 0.00 | 0.00 | 56 | 974.5 |
| 20260506100609 | 16 | 225 | 3.2 | 0.0 | 0.00 | 0.00 | 0.00 | 56 | 974.5 |
| 20260506095609 | 16 | 135 | 3.2 | 4.8 | 0.00 | 0.00 | 0.00 | 56 | 974.6 |
| 20260506094609 | 16 | 225 | 3.2 | 1.6 | 0.00 | 0.00 | 0.00 | 57 | 974.6 |
| 20260506093614 | 17 | 315 | 3.2 | 4.8 | 0.00 | 0.00 | 0.00 | 58 | 974.5 |
| 20260506092614 | 17 | 247 | 4.8 | 6.4 | 0.00 | 0.00 | 0.00 | 57 | 974.5 |
| 20260506091614 | 16 | 225 | 3.2 | 3.2 | 0.00 | 0.00 | 0.00 | 57 | 974.4 |
| 20260506090614 | 15 | 180 | 3.2 | 6.4 | 0.00 | 0.00 | 0.00 | 58 | 974.4 |
| 20260506085614 | 15 | 112 | 3.2 | 3.2 | 0.00 | 0.00 | 0.00 | 58 | 974.1 |
| 20260506084614 | 14 | 180 | 3.2 | 11.3 | 0.00 | 0.00 | 0.00 | 58 | 974.1 |
| 20260506083614 | 14 | 247 | 1.6 | 0.0 | 0.00 | 0.00 | 0.00 | 58 | 973.9 |
| 20260506082614 | 14 | 202 | 1.6 | 0.0 | 0.00 | 0.00 | 0.00 | 58 | 973.9 |
| 20260506081613 | 13 | 157 | 1.6 | 4.8 | 0.00 | 0.00 | 0.00 | 58 | 973.9 |
| 20260506080613 | 13 | 157 | 3.2 | 1.6 | 0.00 | 0.00 | 0.00 | 58 | 973.9 |
| 20260506072613 | 13 | 180 | 3.2 | 6.4 | 0.00 | 0.00 | 0.00 | 57 | 973.8 |
| 20260506071613 | 13 | 225 | 3.2 | 3.2 | 0.00 | 0.00 | 0.00 | 57 | 973.6 |
| 20260506070613 | 13 | 180 | 1.6 | 0.0 | 0.00 | 0.00 | 0.00 | 57 | 973.6 |
| 20260506061612 | 12 | 180 | 1.6 | 6.4 | 0.00 | 0.00 | 0.00 | 58 | 973.5 |
| 20260506060612 | 12 | 135 | 0.0 | 0.0 | 0.00 | 0.00 | 0.00 | 57 | 973.5 |
| 20260506050612 | 11 | 157 | 0.0 | 0.0 | 0.00 | 0.00 | 0.00 | 57 | 973.2 |
| 20260506044612 | 11 | 315 | 1.6 | 0.0 | 0.00 | 0.00 | 0.00 | 57 | 973.3 |
| 20260506043611 | 11 | 315 | 0.0 | 4.8 | 0.00 | 0.00 | 0.00 | 57 | 973.4 |
| 20260506042611 | 10 | 247 | 0.0 | 0.0 | 0.00 | 0.00 | 0.00 | 57 | 973.4 |
| 20260506041611 | 10 | 225 | 0.0 | 0.0 | 0.00 | 0.00 | 0.00 | 57 | 973.4 |
| 20260506040611 | 10 | 202 | 0.0 | 0.0 | 0.00 | 0.00 | 0.00 | 57 | 973.4 |
| 20260506035611 | 10 | 202 | 0.0 | 0.0 | 0.00 | 0.00 | 0.00 | 57 | 973.6 |
| 20260506034611 | 10 | 157 | 0.0 | 0.0 | 0.00 | 0.00 | 0.00 | 57 | 973.6 |
| 20260506033611 | 10 | 225 | 0.0 | 0.0 | 0.00 | 0.00 | 0.00 | 57 | 973.6 |
| 20260506032611 | 10 | 180 | 0.0 | 0.0 | 0.00 | 0.00 | 0.00 | 57 | 973.6 |
| 20260506031611 | 10 | 247 | 0.0 | 0.0 | 0.00 | 0.00 | 0.00 | 57 | 973.5 |
| 20260506030611 | 10 | 180 | 0.0 | 4.8 | 0.00 | 0.00 | 0.00 | 57 | 973.5 |
| 20260506025610 | 11 | 225 | 0.0 | 0.0 | 0.00 | 0.00 | 0.00 | 56 | 973.7 |
| 20260506024611 | 11 | 315 | 1.6 | 0.0 | 0.00 | 0.00 | 0.00 | 56 | 973.7 |
| 20260506023610 | 11 | 180 | 1.6 | 0.0 | 0.00 | 0.00 | 0.00 | 56 | 973.5 |
| 20260506022610 | 11 | 135 | 1.6 | 3.2 | 0.00 | 0.00 | 0.00 | 56 | 973.5 |
| 20260506021610 | 11 | 157 | 4.8 | 14.5 | 0.00 | 0.00 | 0.00 | 56 | 973.8 |
| 20260506020610 | 11 | 225 | 1.6 | 3.2 | 0.00 | 0.00 | 0.00 | 56 | 973.8 |
| 20260506015610 | 11 | 180 | 1.6 | 3.2 | 0.00 | 0.00 | 0.00 | 56 | 973.8 |
| 20260506014610 | 11 | 157 | 0.0 | 0.0 | 0.00 | 0.00 | 0.00 | 56 | 973.8 |
| 20260506013610 | 12 | 157 | 1.6 | 0.0 | 0.00 | 0.00 | 0.00 | 56 | 973.9 |
| 20260506012610 | 12 | 202 | 1.6 | 0.0 | 0.00 | 0.00 | 0.00 | 56 | 973.9 |
| 20260506011611 | 11 | 135 | 0.0 | 0.0 | 0.00 | 0.00 | 0.00 | 56 | 974.1 |
| 20260506010610 | 12 | 180 | 1.6 | 3.2 | 0.00 | 0.00 | 0.00 | 56 | 974.1 |
| 20260506005610 | 12 | 157 | 0.0 | 0.0 | 0.00 | 0.00 | 0.00 | 56 | 974.3 |
| 20260506004609 | 12 | 202 | 1.6 | 4.8 | 0.00 | 0.00 | 0.00 | 55 | 974.3 |
| 20260506003609 | 12 | 225 | 1.6 | 3.2 | 0.00 | 0.00 | 0.00 | 55 | 974.4 |
| 20260506002609 | 13 | 225 | 1.6 | 0.0 | 0.00 | 0.00 | 0.00 | 55 | 974.4 |
| 20260506001609 | 13 | 247 | 3.2 | 6.4 | 0.00 | 0.00 | 0.00 | 55 | 974.8 |
| 20260506000609 | 13 | 157 | 3.2 | 1.6 | 0.00 | 0.00 | 0.00 | 55 | 974.8 |
| 20260505235609 | 13 | 247 | 3.2 | 6.4 | 0.00 | 0.00 | 0.00 | 55 | 974.8 |